Orbital Elements at Epoch 2459200.5 (2020-Dec-17.0) TDB
Reference: JPL 11 (heliocentric ecliptic J2000)
Element | Value | Uncertainty (1-sigma) | Units |
e | .1319980340070123 | 7.4958e-08 | |
a | 3.071302826068386 | 3.7198e-08 | au |
q | 2.665896891187178 | 2.2783e-07 | au |
i | 2.639546985927578 | 6.1397e-06 | deg |
node | 71.03611469040146 | 0.0001852 | deg |
peri | 86.66559851727999 | 0.00018689 | deg |
M | 196.5824946198628 | 2.6532e-05 | deg |
tp | 2460092.938837311999 (2023-May-28.43883731) | 0.00015323 | TDB |
period | 1965.994895620097 5.38 | 3.5716e-05 9.779e-08 | d yr |
n | .1831133950561209 | 3.3266e-09 | deg/d |
Q | 3.476708760949593 | 4.2108e-08 | au |
|
| | Orbit Determination Parameters
Additional Information
|